Townsville, Australia

2:22 AM AEST on March 27, 2017 (GMT +1000)
Townsville

Weather History for 94294 - September, 2013

Change the Weather History Date:

Thursday, September 12, 2013

  Actual Average Record
Temperature  
Mean Temperature 78 °F -  
Max Temperature 89 °F 83 °F - ()
Min Temperature 66 °F 66 °F - ()
Cooling Degree Days 12    
Growing Degree Days 28 (Base 50)    
Moisture  
Dew Point 65 °F    
Average Humidity 75    
Maximum Humidity 100    
Minimum Humidity 15    
Precipitation  
Precipitation 0.00 in 0.02 in - ()
Sea Level Pressure  
Sea Level Pressure 29.98 in    
Wind  
Wind Speed 5 mph ()    
Max Wind Speed 14 mph    
Max Gust Speed -    
Visibility 5.5 miles    
Events Fog    
T = Trace of Precipitation, MM = Missing Value Source: Averaged Metar Reports

Daily Weather History Graph

Daily Weather History Graph

Search for Another Location

Airport or City:

Trip Planner

Search our weather history database for the weather conditions in past years. The results will help you decide how hot, cold, wet, or windy it might be!

Date:

Astronomy

Sep. 12, 2013 Rise Set
Actual Time 6:11 AM AEST 6:07 PM AEST
Civil Twilight 5:49 AM AEST 6:29 PM AEST
Nautical Twilight 5:24 AM AEST 6:54 PM AEST
Astronomical Twilight 4:59 AM AEST 7:19 PM AEST
Moon 10:58 AM AEST (9/12) No Moon Set
Length of Visible Light 12h 39m
Length of Day
11h 55m
Waxing Crescent, 43% of the Moon is Illuminated
Sep 12
Waxing Crescent
Sep 13
First Quarter
Sep 19
Full
Sep 27
Last Quarter
Oct 5
New

Hourly Weather History & Observations

Time (AEST) Temp. Heat Index Dew Point Humidity Pressure Visibility Wind Dir Wind Speed Gust Speed Precip Events Conditions
12:00 AM 71 °F - 69 °F 91% 30.03 in - North 5.8 mph - -  
12:00 AM 71.6 °F - 69.8 °F 94% 30.01 in 6.2 mi North 5.8 mph - N/A   Unknown
12:30 AM 73.4 °F - 69.8 °F 88% 30.01 in 6.2 mi North 5.8 mph - N/A   Scattered Clouds
1:00 AM 72 °F - 69 °F 88% 30.03 in - North 4.6 mph - -  
1:00 AM 71.6 °F - 69.8 °F 94% 30.01 in 6.2 mi North 4.6 mph - N/A   Scattered Clouds
1:30 AM 71.6 °F - 68.0 °F 88% 30.01 in 6.2 mi North 5.8 mph - N/A   Scattered Clouds
2:00 AM 69.8 °F - 68.0 °F 94% 30.01 in 6.2 mi NNW 4.6 mph - N/A   Scattered Clouds
2:19 AM 68.0 °F - 68.0 °F 100% 29.98 in 3.1 mi NNW 4.6 mph - N/A   Scattered Clouds
2:30 AM 69.8 °F - 68.0 °F 94% 29.98 in 5.0 mi NW 4.6 mph - N/A   Scattered Clouds
2:38 AM 69.8 °F - 68.0 °F 94% 29.98 in 6.2 mi NW 4.6 mph - N/A   Scattered Clouds
2:58 AM 68.0 °F - 68.0 °F 100% 29.98 in - NW 4.6 mph - N/A   Unknown
3:00 AM 68 °F - 67 °F 97% 29.99 in 2 mi NW 4.6 mph - -  
3:00 AM 68.0 °F - 68.0 °F 100% 29.98 in 1.8 mi NW 4.6 mph - N/A   Unknown
3:30 AM 68.0 °F - 66.2 °F 94% 29.98 in 0.9 mi Calm Calm - N/A   Scattered Clouds
3:32 AM 68.0 °F - 68.0 °F 100% 29.98 in 0.5 mi Calm Calm - N/A   Scattered Clouds
3:38 AM 68.0 °F - 68.0 °F 100% 29.98 in 0.6 mi Calm Calm - N/A   Scattered Clouds
3:40 AM 68.0 °F - 66.2 °F 94% 29.98 in 0.5 mi Calm Calm - N/A   Scattered Clouds
4:00 AM 68 °F - 68 °F 98% 30.00 in - Calm Calm - -  
4:00 AM 68.0 °F - 68.0 °F 100% 29.98 in 3.1 mi Calm Calm - N/A   Scattered Clouds
4:16 AM 68.0 °F - 66.2 °F 94% 29.98 in 4.3 mi Calm Calm - N/A   Mostly Cloudy
4:19 AM 68.0 °F - 68.0 °F 100% 29.98 in 4.3 mi Calm Calm - N/A   Mostly Cloudy
4:30 AM 68.0 °F - 66.2 °F 94% 29.98 in 6.2 mi Calm Calm - N/A   Mostly Cloudy
5:00 AM 68.0 °F - 68.0 °F 100% 29.98 in 6.2 mi Calm Calm - N/A   Mostly Cloudy
5:17 AM 68.0 °F - 66.2 °F 94% 30.01 in 6.2 mi NW 3.5 mph - N/A   Scattered Clouds
5:30 AM 68.0 °F - 66.2 °F 94% 30.01 in 6.2 mi East 1.2 mph - N/A   Unknown
6:00 AM 68.0 °F - 66.2 °F 94% 30.01 in 4.3 mi Calm Calm - N/A Fog Shallow Fog
6:30 AM 66.2 °F - 66.2 °F 100% 30.01 in 3.7 mi ENE 2.3 mph - N/A Fog Shallow Fog
6:43 AM 68.0 °F - 66.2 °F 94% 30.01 in 5.0 mi Calm Calm - N/A Fog Fog
7:00 AM 68 °F - 67 °F 98% 30.04 in - Calm Calm - -  
7:00 AM 68.0 °F - 68.0 °F 100% 30.01 in 6.2 mi Calm Calm - N/A   Partly Cloudy
7:30 AM 71.6 °F - 69.8 °F 94% 30.04 in 6.2 mi North 4.6 mph - N/A   Mostly Cloudy
8:00 AM 75.2 °F - 68.0 °F 78% 30.04 in 6.2 mi North 6.9 mph - N/A   Scattered Clouds
8:30 AM 77.0 °F - 68.0 °F 74% 30.04 in 6.2 mi NNW 9.2 mph - N/A   Partly Cloudy
9:00 AM 77 °F - 67 °F 63% 30.05 in 12 mi NNW 8.1 mph - -   Haze
9:00 AM 77.0 °F - 66.2 °F 69% 30.04 in 6.2 mi NNW 8.1 mph - N/A   Partly Cloudy
9:30 AM 78.8 °F - 64.4 °F 61% 30.04 in 6.2 mi NNW 8.1 mph - N/A   Partly Cloudy
10:00 AM 81 °F - 63 °F 44% 30.05 in - NNW 8.1 mph - -  
10:00 AM 80.6 °F 81.8 °F 62.6 °F 54% 30.04 in - NNW 8.1 mph - N/A   Clear
10:30 AM 82.4 °F 83.4 °F 62.6 °F 51% 30.04 in - NNW 8.1 mph - N/A   Clear
11:00 AM 82.4 °F 82.9 °F 60.8 °F 48% 30.01 in - NNW 8.1 mph - N/A   Clear
11:30 AM 84.2 °F 83.5 °F 57.2 °F 40% 30.01 in - NW 8.1 mph - N/A   Clear
12:00 PM 85 °F - 55 °F 26% 29.99 in 19 mi NW 8.1 mph - -   Haze
12:00 PM 84.2 °F 83.0 °F 55.4 °F 37% 29.98 in - NW 8.1 mph - N/A   Clear
12:30 PM 87.8 °F - 51.8 °F 29% 29.98 in - NNW 8.1 mph - N/A   Clear
1:00 PM 89 °F - 48 °F 15% 29.97 in - North 8.1 mph - -  
1:00 PM 89.6 °F - 48.2 °F 24% 29.95 in - North 8.1 mph - N/A   Clear
1:30 PM 87.8 °F - 48.2 °F 25% 29.95 in - North 10.4 mph - N/A   Clear
2:00 PM 86.0 °F - 46.4 °F 25% 29.92 in - NNW 12.7 mph - N/A   Clear
2:30 PM 84.2 °F 85.0 °F 62.6 °F 48% 29.92 in - NE 13.8 mph - N/A   Clear
3:00 PM 86 °F - 53 °F 22% 29.92 in 28 mi NE 12.7 mph - -   Partly Cloudy
3:00 PM 86.0 °F 84.2 °F 53.6 °F 33% 29.92 in - NE 12.7 mph - N/A   Clear
3:30 PM 82.4 °F 83.4 °F 62.6 °F 51% 29.92 in - North 11.5 mph - N/A   Clear
4:00 PM 83 °F - 58 °F 32% 29.93 in - North 10.4 mph - -  
4:00 PM 82.4 °F 82.5 °F 59.0 °F 45% 29.92 in 6.2 mi North 10.4 mph - N/A   Partly Cloudy
4:30 PM 82.4 °F 82.0 °F 57.2 °F 42% 29.92 in 6.2 mi North 10.4 mph - N/A   Partly Cloudy
5:00 PM 80.6 °F 81.8 °F 62.6 °F 54% 29.92 in 6.2 mi North 10.4 mph - N/A   Partly Cloudy
5:30 PM 78.8 °F - 66.2 °F 65% 29.92 in - North 8.1 mph - N/A   Clear
6:00 PM 77 °F - 65 °F 57% 29.94 in - North 8.1 mph - -  
6:00 PM 77.0 °F - 64.4 °F 65% 29.92 in 6.2 mi North 8.1 mph - N/A   Unknown
6:30 PM 77.0 °F - 66.2 °F 69% 29.95 in 6.2 mi North 9.2 mph - N/A   Unknown
7:00 PM 75 °F - 69 °F 76% 29.96 in - North 10.4 mph - -  
7:00 PM 75.2 °F - 69.8 °F 83% 29.95 in 6.2 mi North 10.4 mph - N/A   Unknown
7:30 PM 73.4 °F - 68.0 °F 83% 29.95 in 6.2 mi North 5.8 mph - N/A   Unknown
8:00 PM 71.6 °F - 68.0 °F 88% 29.98 in 6.2 mi NNW 2.3 mph - N/A   Unknown
8:30 PM 73.4 °F - 69.8 °F 88% 29.98 in 6.2 mi North 5.8 mph - N/A   Unknown
9:00 PM 71 °F - 68 °F 87% 29.99 in - Calm Calm - -  
9:00 PM 71.6 °F - 68.0 °F 88% 29.98 in 6.2 mi Calm Calm - N/A   Unknown
9:30 PM 69.8 °F - 68.0 °F 94% 29.98 in 6.2 mi Calm Calm - N/A   Unknown
10:00 PM 70 °F - 68 °F 91% 29.99 in - Calm Calm - -  
10:00 PM 69.8 °F - 68.0 °F 94% 29.98 in 6.2 mi Calm Calm - N/A   Unknown
10:27 PM 69.8 °F - 68.0 °F 94% 29.98 in 3.7 mi Calm Calm - N/A   Unknown
10:30 PM 69.8 °F - 68.0 °F 94% 29.98 in 3.7 mi Calm Calm - N/A   Unknown
11:00 PM 69.8 °F - 68.0 °F 94% 29.98 in 6.2 mi Calm Calm - N/A   Unknown
11:01 PM 69.8 °F - 68.0 °F 94% 29.98 in 6.2 mi Calm Calm - N/A   Unknown
11:30 PM 69.8 °F - 68.0 °F 94% 29.98 in 5.6 mi Calm Calm - N/A   Unknown